Tracking 35035 objects as of 16-Aug-2026
HD Live streaming from Space Station
objects crossing your sky now

AEROCUBE 2

Track AEROCUBE 2 now!
10-day predictions
AEROCUBE 2 is classified as:


NORAD ID: 31133
Int'l Code: 2007-012R
Launch date: April 17, 2007
Source: United States (US)
Launch site: TYURATAM MISSILE AND SPACE COMPLEX (TTMTR)

Uplink (MHz):
Downlink (MHz): 902-928
Beacon (MHz):
Mode: 9k6 GFSK
Call sign:
Status: Inactive

Your satellite tracking list
Your tracking list is empty




NASA's NSSDC Master Catalog

Two Line Element Set (TLE):
1 31133U 07012R   26227.95579551  .00000516  00000-0  98516-4 0  9991
2 31133  98.4421 214.7003 0071986 135.3289 225.3744 14.66790931 29116
Source of the keplerian elements: AFSPC